User: anonymous   Login
Location: Unspecified
(0.0000°N, 0.0000°E)
Time: 16:45:21
(UTC+00:00)
Language:

TET - Orbit

View from above orbital plane
View from above orbital plane
View from above satellite
View from above satellite

Ground track
Ground track

The orbit data is extracted from the following two-line orbital elements,

1 38710U 12039D   18019.88249085 +.00002526 +00000-0 +52275-4 0  9997
2 38710 097.5734 350.1155 0002923 116.6057 243.5492 15.46823595307724
Epoch (UTC): 19 January 2018 21:10:47
Eccentricity: 0.0002923
inclination: 97.5734°
perigee height: 424 km
apogee height: 428 km
right ascension of ascending node: 350.1155°
argument of perigee: 116.6057°
revolutions per day: 15.46823595
mean anomaly at epoch: 243.5492°
orbit number at epoch: 30772

The dashed part of the orbit path shows where the satellite is in the earth's shadow,  

DLR